Location: Hernandez
(10.3704°N, 67.2181°W)
Time: 07:15:07
(UTC+00:00)

CZ-4B R/B - Pass Details

Date: 13 April 2024
Orbit: 465 x 616 km, 97.9° (Epoch: 25 May)

Event Time Altitude Azimuth Distance (km) Brightness Sun altitude
Exits shadow 23:22:49 14° 126° (SE) 1,622 4.6 -11.3°
Maximum altitude 23:25:23 24° 78° (ENE) 1,140 3.9 -11.9°
Drops below altitude 10° 23:28:31 10° 22° (NNE) 1,769 5.3 -12.6°
Sets 23:30:50 0° 9° (N) 2,628 6.3 -13.2°
